When you browse on this site, cookies collect data to enhance your experience and personalize the content and advertising you see.
Visit our Privacy Policy to learn more. By continuing to use the site, you agree to this use of cookies and data.
  • In Sweden
  • List of Countries
  • For 7 days
  • Water Temperature
  • Weather Map
  • Weather Widgets
  • user-avatar
    Login

    Hourly Weather Selyanka

    Today, 21 September, Saturday

    Time Temperature Precipitation Wind Pressure Humidity
    00:00 +1°C° 0 mm 1 mps 737 mmHg 90%
    01:00 +1°C° 0 mm 1 mps 737 mmHg 91%
    02:00 +2°C° 0 mm 1 mps 737 mmHg 92%
    03:00 +2°C° 0 mm 1 mps 737 mmHg 92%
    04:00 +2°C° 0 mm 1 mps 737 mmHg 89%
    05:00 +3°C° 0 mm 1 mps 737 mmHg 91%
    06:00 +3°C° 0 mm 1 mps 737 mmHg 92%
    07:00 +4°C° 0 mm 1 mps 736 mmHg 94%
    08:00 +4°C° 0.1 mm 2 mps 736 mmHg 92%
    09:00 +4°C° 0.1 mm 2 mps 736 mmHg 89%
    10:00 +4°C° 0 mm 3 mps 736 mmHg 87%
    11:00 +5°C° 0.1 mm 3 mps 735 mmHg 83%
    12:00 +6°C° 0.1 mm 4 mps 734 mmHg 80%
    13:00 +8°C° 0.1 mm 5 mps 734 mmHg 77%
    14:00 +7°C° 0.6 mm 4 mps 733 mmHg 80%
    15:00 +7°C° 0.6 mm 4 mps 733 mmHg 83%
    16:00 +8°C° 0.6 mm 3 mps 732 mmHg 86%
    17:00 +7°C° 0.4 mm 3 mps 732 mmHg 89%
    18:00 +6°C° 0.4 mm 2 mps 732 mmHg 92%
    19:00 +5°C° 0.4 mm 1 mps 731 mmHg 96%
    20:00 +5°C° 0 mm 1 mps 731 mmHg 96%
    21:00 +4°C° 0 mm 1 mps 731 mmHg 97%
    22:00 +3°C° 0 mm 1 mps 730 mmHg 97%
    23:00 +3°C° 0 mm 1 mps 730 mmHg 98%

    Tomorrow, 22 September, Sunday

    Time Temperature Precipitation Wind Pressure Humidity
    00:00 +2°C° 0 mm 1 mps 730 mmHg 98%
    01:00 +1°C° 0 mm 1 mps 729 mmHg 98%
    02:00 +1°C° 0 mm 2 mps 729 mmHg 97%
    03:00 +1°C° 0 mm 2 mps 729 mmHg 96%
    04:00 +1°C° 0 mm 2 mps 729 mmHg 95%
    05:00 +1°C° 0 mm 2 mps 728 mmHg 94%
    06:00 +1°C° 0 mm 2 mps 728 mmHg 93%
    07:00 +1°C° 0 mm 2 mps 728 mmHg 92%
    08:00 +2°C° 0 mm 2 mps 727 mmHg 90%
    09:00 +2°C° 0 mm 2 mps 727 mmHg 88%
    10:00 +3°C° 0 mm 2 mps 727 mmHg 86%
    11:00 +3°C° 0 mm 2 mps 727 mmHg 84%
    12:00 +3°C° 0 mm 2 mps 727 mmHg 82%
    13:00 +3°C° 0 mm 2 mps 727 mmHg 80%
    14:00 +3°C° 0 mm 2 mps 727 mmHg 78%
    15:00 +3°C° 0 mm 2 mps 727 mmHg 76%
    16:00 +5°C° 0 mm 1 mps 727 mmHg 74%
    17:00 +3°C° 0 mm 1 mps 727 mmHg 78%
    18:00 +2°C° 0 mm 1 mps 726 mmHg 82%
    19:00 0°C° 0 mm 0 mps 726 mmHg 85%
    20:00 0°C° 0 mm 0 mps 726 mmHg 88%
    21:00 0°C° 0 mm 1 mps 726 mmHg 90%
    22:00 0°C° 0 mm 1 mps 726 mmHg 92%
    23:00 0°C° 0 mm 1 mps 726 mmHg 93%

    Day after tomorrow, 23 September, Monday

    Time Temperature Precipitation Wind Pressure Humidity
    00:00 -1°C° 0 mm 1 mps 726 mmHg 94%
    01:00 -1°C° 0 mm 1 mps 725 mmHg 95%
    02:00 -1°C° 0 mm 1 mps 725 mmHg 95%
    03:00 -1°C° 0 mm 1 mps 725 mmHg 95%
    04:00 -1°C° 0 mm 1 mps 725 mmHg 95%
    05:00 0°C° 0 mm 1 mps 724 mmHg 91%
    06:00 -1°C° 0 mm 2 mps 724 mmHg 88%
    07:00 -1°C° 0 mm 2 mps 724 mmHg 84%
    08:00 +1°C° 0 mm 3 mps 724 mmHg 76%
    09:00 +2°C° 0 mm 3 mps 723 mmHg 68%
    10:00 +4°C° 0 mm 4 mps 723 mmHg 60%
    11:00 +4°C° 0 mm 4 mps 722 mmHg 56%
    12:00 +5°C° 0 mm 4 mps 722 mmHg 53%
    13:00 +6°C° 0 mm 4 mps 722 mmHg 49%
    14:00 +6°C° 0 mm 4 mps 722 mmHg 51%
    15:00 +6°C° 0 mm 4 mps 722 mmHg 53%
    16:00 +5°C° 0 mm 3 mps 721 mmHg 55%
    17:00 +4°C° 0 mm 3 mps 722 mmHg 61%
    18:00 +3°C° 0 mm 3 mps 722 mmHg 67%
    19:00 +2°C° 0 mm 3 mps 723 mmHg 73%
    20:00 +1°C° 0 mm 3 mps 723 mmHg 75%
    21:00 0°C° 0 mm 3 mps 724 mmHg 77%
    22:00 0°C° 0 mm 3 mps 725 mmHg 79%
    23:00 -1°C° 0 mm 3 mps 725 mmHg 82%

    24 September, Tuesday

    Time Temperature Precipitation Wind Pressure Humidity
    00:00 -2°C° 0 mm 2 mps 726 mmHg 86%
    01:00 -3°C° 0 mm 2 mps 726 mmHg 89%
    02:00 -3°C° 0 mm 2 mps 727 mmHg 91%
    03:00 -4°C° 0 mm 2 mps 728 mmHg 93%
    04:00 -4°C° 0 mm 2 mps 728 mmHg 94%
    05:00 -4°C° 0 mm 2 mps 729 mmHg 93%
    06:00 -3°C° 0 mm 2 mps 729 mmHg 91%
    07:00 -3°C° 0 mm 2 mps 729 mmHg 89%
    08:00 -1°C° 0 mm 2 mps 730 mmHg 79%
    09:00 +1°C° 0 mm 2 mps 730 mmHg 69%
    10:00 +2°C° 0 mm 3 mps 731 mmHg 60%
    11:00 +3°C° 0 mm 3 mps 731 mmHg 59%
    12:00 +3°C° 0 mm 3 mps 731 mmHg 58%
    13:00 +3°C° 0 mm 3 mps 731 mmHg 57%
    14:00 +3°C° 0 mm 3 mps 732 mmHg 58%
    15:00 +3°C° 0 mm 3 mps 732 mmHg 59%
    16:00 +3°C° 0 mm 3 mps 732 mmHg 60%
    17:00 +2°C° 0.2 mm 3 mps 732 mmHg 69%
    18:00 0°C° 0.2 mm 3 mps 732 mmHg 79%
    19:00 -1°C° 0.2 mm 3 mps 732 mmHg 89%
    20:00 -1°C° 0 mm 3 mps 732 mmHg 90%
    21:00 -1°C° 0 mm 3 mps 732 mmHg 90%
    22:00 -2°C° 0 mm 3 mps 732 mmHg 91%
    23:00 -1°C° 0.1 mm 3 mps 732 mmHg 93%

    25 September, Wednesday

    Time Temperature Precipitation Wind Pressure Humidity
    00:00 -1°C° 0.1 mm 3 mps 732 mmHg 95%
    01:00 -1°C° 0.1 mm 3 mps 732 mmHg 97%
    02:00 -1°C° 0.1 mm 3 mps 732 mmHg 96%
    03:00 -1°C° 0.1 mm 3 mps 732 mmHg 95%
    04:00 -2°C° 0.1 mm 4 mps 732 mmHg 95%
    05:00 -2°C° 0.1 mm 4 mps 732 mmHg 95%
    06:00 -2°C° 0.1 mm 4 mps 733 mmHg 95%
    07:00 -2°C° 0.1 mm 4 mps 733 mmHg 96%
    08:00 -2°C° 0.1 mm 4 mps 733 mmHg 91%
    09:00 -1°C° 0.1 mm 4 mps 733 mmHg 87%
    10:00 0°C° 0.1 mm 4 mps 733 mmHg 83%
    11:00 0°C° 0.1 mm 4 mps 734 mmHg 82%
    12:00 0°C° 0.1 mm 4 mps 734 mmHg 81%
    13:00 +1°C° 0.1 mm 5 mps 734 mmHg 80%
    14:00 +1°C° 0.1 mm 4 mps 734 mmHg 81%
    15:00 +1°C° 0.1 mm 4 mps 734 mmHg 81%
    16:00 +1°C° 0.1 mm 4 mps 734 mmHg 81%
    17:00 0°C° 0 mm 4 mps 734 mmHg 85%
    18:00 -1°C° 0 mm 4 mps 734 mmHg 89%
    19:00 -1°C° 0 mm 4 mps 735 mmHg 93%
    20:00 -2°C° 0 mm 4 mps 735 mmHg 93%
    21:00 -2°C° 0 mm 4 mps 735 mmHg 92%
    22:00 -2°C° 0 mm 4 mps 735 mmHg 92%
    23:00 -2°C° 0 mm 4 mps 735 mmHg 91%

    26 September, Thursday

    Time Temperature Precipitation Wind Pressure Humidity
    00:00 -2°C° 0 mm 4 mps 735 mmHg 91%
    01:00 -2°C° 0 mm 4 mps 735 mmHg 90%
    02:00 -2°C° 0 mm 4 mps 735 mmHg 91%
    03:00 -2°C° 0 mm 4 mps 735 mmHg 92%
    04:00 -2°C° 0 mm 4 mps 735 mmHg 92%
    05:00 -2°C° 0 mm 4 mps 735 mmHg 91%
    06:00 -2°C° 0 mm 4 mps 735 mmHg 90%
    07:00 -3°C° 0 mm 4 mps 736 mmHg 89%
    08:00 -2°C° 0.1 mm 4 mps 736 mmHg 88%
    09:00 -2°C° 0.1 mm 4 mps 736 mmHg 87%
    10:00 -1°C° 0.1 mm 4 mps 736 mmHg 87%
    11:00 -1°C° 0.1 mm 5 mps 736 mmHg 83%
    12:00 0°C° 0.1 mm 5 mps 737 mmHg 80%
    13:00 0°C° 0.1 mm 5 mps 737 mmHg 76%
    14:00 0°C° 0.1 mm 5 mps 737 mmHg 77%
    15:00 0°C° 0.1 mm 4 mps 737 mmHg 77%
    16:00 0°C° 0.1 mm 4 mps 737 mmHg 77%
    17:00 -1°C° 0 mm 4 mps 737 mmHg 83%
    18:00 -1°C° 0 mm 4 mps 738 mmHg 88%
    19:00 -1°C° 0 mm 3 mps 738 mmHg 93%
    20:00 -1°C° 0 mm 3 mps 738 mmHg 93%
    21:00 -2°C° 0 mm 3 mps 738 mmHg 93%
    22:00 -2°C° 0 mm 3 mps 738 mmHg 94%
    23:00 -2°C° 0 mm 3 mps 738 mmHg 94%
    Show more